sat.trackr.live / text

‹ back to catalog

PRAETORIAN SDA_616

NORAD 65579 · 2025-203Q

PAYLOAD ACTIVE UNKNOWN

§ Identity

Operator
Country
US
Launch date
2025-09-10
Launch site
AFWTR
Launch vehicle
Mass (kg)
RCS (m²)

Purposes: military

External: N2YO · Heavens-Above · Gunter

§ Orbital elements

Epoch: 2026-09-20T00:39:17.059392Z

Period
104.10 min
Inclination
81.3029°
Eccentricity
0.0004650
Mean motion
13.83275783 rev/d
Perigee alt
948.9 km
Apogee alt
955.7 km
Semi-major
7,330.4 km
B*
6.9390e-5
RAAN
283.4187°
Arg perigee
312.5469°
Mean anomaly
47.5294°
Rev number
5,179

§ Raw data

PRAETORIAN SDA_6161 65579U 25203Q   26263.02728078  .00000088  00000+0  69390-4 0  99932 65579  81.3029 283.4187 0004650 312.5469  47.5294 13.83275783 51795

JSON: /api/v1/satellites/65579 · /tle

For live sub-satellite position, see the globe view (requires WebGL).

§ Visibility from observer

Set your observer location to see the next 7 days of passes ≥ 10°. The values pass through the URL so the page stays shareable.

No JS? Fill the form by hand. The geolocation button needs JavaScript.